Weather History for ENSB - May, 2013

Change the Weather History Date:

Monday, May 20, 2013

  Actual Average Record
Temperature  
Mean Temperature 34 °F -  
Max Temperature 37 °F 35 °F 37 °F (2013)
Min Temperature 32 °F 30 °F 15 °F (1998)
Degree Days  
Heating Degree Days 30    
Moisture  
Dew Point 30 °F    
Average Humidity 79    
Maximum Humidity 87    
Minimum Humidity 61    
Precipitation  
Precipitation 0.00 in 0.01 in - ()
Sea Level Pressure  
Sea Level Pressure 30.21 in    
Wind  
Wind Speed 7 mph ()    
Max Wind Speed 18 mph    
Max Gust Speed -    
Visibility 7.4 miles    
Events Rain    
Averages and records for this station are not official NWS values.
T = Trace of Precipitation, MM = Missing Value Source: Averaged Metar Reports

Daily Weather History Graph

Daily Weather History Graph

Search for Another Location

Airport or City:

Trip Planner

Search our weather history database for the weather conditions in past years. The results will help you decide how hot, cold, wet, or windy it might be!

Date:

Astronomy

Jan. 01, 1970 Rise Set
Actual Time Sun does not set Sun does not set
Civil Twilight Sun does not set Sun does not set
Nautical Twilight Sun does not set Sun does not set
Astronomical Twilight Sun does not set Sun does not set
Moon 3:51 PM CEST (5/20) 2:16 AM CEST (5/20)
Length of Visible Light 24h 00m
Length of Day
24h 00m
Waxing Gibbous, 72% of the Moon is Illuminated
May 20
Waxing Gibbous
May 25
Full
May 31
Last Quarter
Jun 8
New
Jun 16
First Quarter

Hourly Weather History & Observations

Time (CEST) Temp. Windchill Dew Point Humidity Pressure Visibility Wind Dir Wind Speed Gust Speed Precip Events Conditions
12:50 AM 33.8 °F - 26.6 °F 75% 30.27 in 6.2 mi Variable 2.3 mph - N/A   Mostly Cloudy
1:50 AM 33.8 °F 29.6 °F 26.6 °F 75% 30.27 in 6.2 mi WSW 4.6 mph - N/A   Mostly Cloudy
2:00 AM 34 °F - 26 °F 61% 30.28 in 47 mi SW 6.7 mph - -   Partly Cloudy
2:50 AM 33.8 °F - 24.8 °F 70% 30.24 in 6.2 mi West 2.3 mph - N/A   Mostly Cloudy
3:50 AM 33.8 °F - 26.6 °F 75% 30.24 in 6.2 mi WSW 2.3 mph - N/A   Mostly Cloudy
4:50 AM 33.8 °F 30.8 °F 28.4 °F 81% 30.24 in 6.2 mi WSW 3.5 mph - N/A   Mostly Cloudy
5:50 AM 33.8 °F - 30.2 °F 87% 30.21 in 6.2 mi Variable 2.3 mph - N/A   Mostly Cloudy
6:50 AM 33.8 °F - 28.4 °F 81% 30.21 in 6.2 mi SW 1.2 mph - N/A Rain Light Rain
7:50 AM 37.4 °F 29.8 °F 30.2 °F 75% 30.21 in 6.2 mi WSW 11.5 mph - N/A   Mostly Cloudy
8:00 AM 38 °F - 30 °F 64% 30.23 in 16 mi WSW 11.2 mph - -   Mostly Cloudy
8:50 AM 37.4 °F 29.8 °F 30.2 °F 75% 30.21 in 6.2 mi WSW 11.5 mph - N/A   Mostly Cloudy
9:50 AM 37.4 °F 29.3 °F 30.2 °F 75% 30.21 in 6.2 mi SW 12.7 mph - N/A   Mostly Cloudy
10:50 AM 35.6 °F 29.9 °F 30.2 °F 81% 30.21 in 6.2 mi WSW 6.9 mph - N/A   Mostly Cloudy
11:50 AM 35.6 °F 29.2 °F 30.2 °F 81% 30.21 in 6.2 mi WSW 8.1 mph - N/A   Mostly Cloudy
12:50 PM 35.6 °F 29.9 °F 32.0 °F 87% 30.21 in 6.2 mi WSW 6.9 mph - N/A   Mostly Cloudy
1:50 PM 35.6 °F 28.0 °F 32.0 °F 87% 30.21 in 6.2 mi WSW 10.4 mph - N/A   Mostly Cloudy
2:00 PM 36 °F - 32 °F 78% 30.23 in 16 mi WSW 11.2 mph - -   Partly Cloudy
2:50 PM 35.6 °F 28.0 °F 32.0 °F 87% 30.21 in 6.2 mi West 10.4 mph - N/A   Mostly Cloudy
3:50 PM 35.6 °F 26.2 °F 32.0 °F 87% 30.21 in 6.2 mi West 15.0 mph - N/A   Mostly Cloudy
4:50 PM 35.6 °F 26.2 °F 32.0 °F 87% 30.21 in 6.2 mi WSW 15.0 mph - N/A   Mostly Cloudy
5:50 PM 37.4 °F 28.2 °F 30.2 °F 75% 30.18 in 6.2 mi WSW 16.1 mph - N/A   Drizzle
6:50 PM 37.4 °F 28.2 °F 30.2 °F 75% 30.18 in 6.2 mi WSW 16.1 mph - N/A   Mostly Cloudy
7:50 PM 35.6 °F 25.5 °F 30.2 °F 81% 30.18 in 6.2 mi WSW 17.3 mph - N/A   Mostly Cloudy
8:00 PM 35 °F - 31 °F 78% 30.19 in 19 mi WSW 17.9 mph - -   Partly Cloudy
8:50 PM 35.6 °F 27.5 °F 30.2 °F 81% 30.15 in 6.2 mi WSW 11.5 mph - N/A   Mostly Cloudy
9:50 PM 35.6 °F 29.2 °F 30.2 °F 81% 30.15 in 6.2 mi West 8.1 mph - N/A   Mostly Cloudy
10:50 PM 33.8 °F 28.6 °F 30.2 °F 87% 30.15 in 6.2 mi SE 5.8 mph - N/A   Mostly Cloudy
11:50 PM 33.8 °F 28.6 °F 30.2 °F 87% 30.15 in 6.2 mi WSW 5.8 mph - N/A   Mostly Cloudy